Location: �mondeville
(49.4591°N, 1.3431°W)
Time: 03:37:42
(UTC+00:00)

Cosmos 2297 - Pass Details

Date: 22 October 2019
Orbit: 834 x 860 km, 71.0° (Epoch: 18 November)

Event Time Altitude Azimuth Distance (km) Brightness Sun altitude
Exits shadow 05:16:49 - 324° (NW) 3,204 6.4 -13.7°
Reaches altitude 10° 05:18:48 10° 317° (NW) 2,507 5.8 -13.3°
Maximum altitude 05:23:58 35° 254° (WSW) 1,350 4.3 -12.5°
Drops below altitude 10° 05:29:06 10° 190° (S) 2,486 6.1 -11.7°
Sets 05:31:43 0° 181° (S) 3,414 6.9 -11.3°
